GW6140 Weather Reports


Display with metric or nautical units.
time (UTC)temp
F
wind
direction
speed
MPH
gust
MPH
rain 1hr
in
rain 24hr
in
rain mn
in
humidity
%
barometer
mb
20260506191146 76 266 23.0 39.0 0.00 0.00 0.00 10 999.0
20260506190646 76 242 25.0 35.0 0.00 0.00 0.00 12 999.0
20260506190145 76 226 25.0 41.0 0.00 0.00 0.00 11 999.0
20260506185207 76 224 22.0 32.0 0.00 0.00 0.00 13 998.0
20260506184645 75 247 21.0 25.0 0.00 0.00 0.00 14 999.0
20260506184145 75 271 17.0 27.0 0.00 0.00 0.00 13 999.0
20260506183646 75 277 15.0 23.0 0.00 0.00 0.00 14 1000.0
20260506183144 75 241 22.0 29.0 0.00 0.00 0.00 14 1000.0
20260506182645 75 233 20.0 26.0 0.00 0.00 0.00 14 1000.0
20260506182145 74 241 19.0 23.0 0.00 0.00 0.00 14 1000.0
20260506181644 74 220 15.0 22.0 0.00 0.00 0.00 16 1000.0
20260506181145 74 251 24.0 30.0 0.00 0.00 0.00 16 1000.0
20260506180644 74 244 17.0 23.0 0.00 0.00 0.00 15 1001.0
20260506180147 73 263 17.0 29.0 0.00 0.00 0.00 15 1000.0
20260506175645 73 287 15.0 20.0 0.00 0.00 0.00 18 1001.0
20260506175147 72 250 14.0 18.0 0.00 0.00 0.00 18 1001.0
20260506174645 72 233 12.0 21.0 0.00 0.00 0.00 19 1001.0
20260506174145 72 268 17.0 27.0 0.00 0.00 0.00 18 1001.0
20260506173645 72 221 13.0 20.0 0.00 0.00 0.00 19 1001.0
20260506173145 71 208 10.0 20.0 0.00 0.00 0.00 20 1002.0
20260506172645 71 284 15.0 18.0 0.00 0.00 0.00 20 1002.0
20260506172145 71 273 14.0 24.0 0.00 0.00 0.00 18 1002.0
20260506171646 70 233 12.0 15.0 0.00 0.00 0.00 21 1002.0
20260506171144 70 240 17.0 21.0 0.00 0.00 0.00 21 1002.0
20260506170645 70 264 19.0 24.0 0.00 0.00 0.00 21 1002.0
20260506170146 70 222 16.0 18.0 0.00 0.00 0.00 21 1002.0
20260506165644 69 222 16.0 24.0 0.00 0.00 0.00 21 1003.0
20260506165147 69 229 16.0 22.0 0.00 0.00 0.00 22 1003.0
20260506164645 68 238 16.0 17.0 0.00 0.00 0.00 26 1003.0
20260506164145 68 257 16.0 21.0 0.00 0.00 0.00 24 1003.0
20260506163644 68 258 10.0 16.0 0.00 0.00 0.00 25 1003.0
20260506163145 67 259 14.0 16.0 0.00 0.00 0.00 25 1004.0
20260506162645 67 260 16.0 22.0 0.00 0.00 0.00 25 1004.0
20260506162145 66 204 15.0 17.0 0.00 0.00 0.00 27 1004.0
20260506161646 66 266 10.0 16.0 0.00 0.00 0.00 28 1004.0
20260506161144 66 274 10.0 16.0 0.00 0.00 0.00 29 1004.0
20260506160645 66 288 16.0 22.0 0.00 0.00 0.00 28 1004.0
20260506160147 65 251 9.0 17.0 0.00 0.00 0.00 28 1004.0
20260506155645 65 245 20.0 26.0 0.00 0.00 0.00 28 1004.0
20260506155146 65 240 22.0 24.0 0.00 0.00 0.00 30 1004.0
20260506154645 65 224 16.0 23.0 0.00 0.00 0.00 30 1005.0
20260506154145 64 246 18.0 24.0 0.00 0.00 0.00 30 1004.0
20260506153645 64 251 17.0 24.0 0.00 0.00 0.00 30 1005.0
20260506153145 64 249 18.0 27.0 0.00 0.00 0.00 30 1005.0
20260506152645 64 231 15.0 25.0 0.00 0.00 0.00 32 1005.0
20260506152145 64 228 16.0 22.0 0.00 0.00 0.00 32 1005.0
20260506151645 63 256 13.0 25.0 0.00 0.00 0.00 33 1005.0
20260506151145 63 237 15.0 23.0 0.00 0.00 0.00 33 1005.0
20260506150646 63 254 17.0 23.0 0.00 0.00 0.00 33 1005.0
20260506150150 62 240 17.0 26.0 0.00 0.00 0.00 33 1006.0
20260506145646 62 248 17.0 22.0 0.00 0.00 0.00 35 1006.0
20260506145145 62 254 15.0 22.0 0.00 0.00 0.00 35 1006.0
20260506144645 61 247 16.0 21.0 0.00 0.00 0.00 36 1006.0
20260506144146 61 240 13.0 17.0 0.00 0.00 0.00 38 1006.0
20260506143644 60 239 14.0 18.0 0.00 0.00 0.00 38 1007.0
20260506143146 59 239 4.0 7.0 0.00 0.00 0.00 41 1007.0
20260506142645 59 322 2.0 3.0 0.00 0.00 0.00 42 1007.0
20260506142145 58 4 4.0 7.0 0.00 0.00 0.00 41 1007.0
20260506141645 58 11 5.0 7.0 0.00 0.00 0.00 43 1008.0
20260506141145 57 298 3.0 5.0 0.00 0.00 0.00 44 1008.0
20260506140645 56 358 1.0 2.0 0.00 0.00 0.00 45 1008.0
20260506140145 55 3 2.0 2.0 0.00 0.00 0.00 47 1009.0
20260506135645 55 30 1.0 2.0 0.00 0.00 0.00 48 1009.0
20260506135145 54 356 4.0 5.0 0.00 0.00 0.00 49 1009.0
20260506134644 53 11 2.0 2.0 0.00 0.00 0.00 50 1010.0
20260506134145 52 354 2.0 2.0 0.00 0.00 0.00 52 1010.0
20260506133646 52 112 2.0 2.0 0.00 0.00 0.00 52 1010.0
20260506133145 51 97 3.0 3.0 0.00 0.00 0.00 53 1010.0
20260506132645 51 155 2.0 3.0 0.00 0.00 0.00 53 1011.0
20260506132144 50 158 4.0 5.0 0.00 0.00 0.00 55 1011.0
20260506131646 49 191 5.0 7.0 0.00 0.00 0.00 57 1011.0
20260506131145 48 209 9.0 10.0 0.00 0.00 0.00 56 1012.0
20260506130645 48 225 7.0 10.0 0.00 0.00 0.00 57 1012.0
20260506130146 47 222 8.0 11.0 0.00 0.00 0.00 56 1012.0
20260506125645 47 222 7.0 10.0 0.00 0.00 0.00 55 1012.0
20260506125144 47 243 6.0 9.0 0.00 0.00 0.00 55 1012.0
20260506124645 47 223 6.0 8.0 0.00 0.00 0.00 56 1012.0
20260506124145 47 227 8.0 10.0 0.00 0.00 0.00 56 1012.0
20260506123646 47 204 6.0 10.0 0.00 0.00 0.00 56 1012.0
20260506123146 47 229 7.0 10.0 0.00 0.00 0.00 54 1011.0
20260506122645 48 190 6.0 7.0 0.00 0.00 0.00 54 1011.0
20260506122145 48 202 5.0 8.0 0.00 0.00 0.00 53 1011.0
20260506121645 49 236 6.0 7.0 0.00 0.00 0.00 52 1011.0
20260506121146 49 215 5.0 6.0 0.00 0.00 0.00 53 1010.0
20260506120645 49 228 1.0 2.0 0.00 0.00 0.00 52 1010.0
20260506120145 49 137 1.0 2.0 0.00 0.00 0.00 52 1011.0
20260506115645 49 185 2.0 2.0 0.00 0.00 0.00 51 1011.0
20260506115145 49 203 0.0 1.0 0.00 0.00 0.00 51 1010.0
20260506114645 49 77 0.0 1.0 0.00 0.00 0.00 52 1011.0
20260506114145 49 66 1.0 1.0 0.00 0.00 0.00 51 1010.0
20260506113645 49 68 4.0 5.0 0.00 0.00 0.00 52 1010.0
20260506113147 49 78 5.0 6.0 0.00 0.00 0.00 51 1010.0
20260506112647 49 47 2.0 3.0 0.00 0.00 0.00 52 1010.0
20260506112150 49 22 2.0 3.0 0.00 0.00 0.00 52 1010.0
20260506111647 49 57 5.0 7.0 0.00 0.00 0.00 51 1011.0
20260506111147 49 33 4.0 6.0 0.00 0.00 0.00 51 1010.0
20260506110646 50 67 2.0 3.0 0.00 0.00 0.00 50 1010.0
20260506110147 50 242 3.0 3.0 0.00 0.00 0.00 50 1010.0
20260506105646 50 242 5.0 7.0 0.00 0.00 0.00 50 1010.0
20260506105146 50 263 5.0 7.0 0.00 0.00 0.00 50 1009.0
20260506104645 50 235 6.0 10.0 0.00 0.00 0.00 51 1009.0
20260506104146 50 239 5.0 9.0 0.00 0.00 0.00 51 1009.0
20260506103647 50 245 6.0 9.0 0.00 0.00 0.00 51 1009.0
20260506103146 51 231 10.0 15.0 0.00 0.00 0.00 51 1009.0
20260506102647 51 223 8.0 11.0 0.00 0.00 0.00 51 1009.0
20260506102145 51 242 8.0 9.0 0.00 0.00 0.00 51 1009.0
20260506101646 51 236 9.0 14.0 0.00 0.00 0.00 51 1009.0
20260506101147 51 236 11.0 14.0 0.00 0.00 0.00 51 1009.0
20260506100647 51 241 10.0 15.0 0.00 0.00 0.00 51 1009.0
20260506100145 51 243 10.0 13.0 0.00 0.00 0.00 51 1009.0
20260506095645 51 243 11.0 14.0 0.00 0.00 0.00 51 1009.0
20260506095144 51 241 11.0 14.0 0.00 0.00 0.00 51 1009.0
20260506094645 51 250 11.0 21.0 0.00 0.00 0.00 52 1009.0
20260506094145 51 221 9.0 10.0 0.00 0.00 0.00 51 1009.0
20260506093645 51 242 9.0 14.0 0.00 0.00 0.00 51 1009.0
20260506093144 51 236 9.0 14.0 0.00 0.00 0.00 51 1009.0
20260506092644 51 237 9.0 13.0 0.00 0.00 0.00 50 1009.0
20260506092145 51 245 10.0 15.0 0.00 0.00 0.00 49 1009.0
20260506091644 51 231 9.0 13.0 0.00 0.00 0.00 49 1009.0
20260506091146 52 240 9.0 13.0 0.00 0.00 0.00 48 1009.0
20260506090650 52 235 10.0 14.0 0.00 0.00 0.00 48 1008.0
20260506090145 53 247 11.0 15.0 0.00 0.00 0.00 48 1008.0
20260506085645 53 242 11.0 14.0 0.00 0.00 0.00 47 1008.0
20260506085145 53 243 11.0 16.0 0.00 0.00 0.00 46 1008.0
20260506084644 53 240 13.0 14.0 0.00 0.00 0.00 46 1008.0
20260506084145 53 243 12.0 16.0 0.00 0.00 0.00 46 1008.0
20260506083645 53 240 14.0 21.0 0.00 0.00 0.00 46 1008.0
20260506083144 53 253 12.0 16.0 0.00 0.00 0.00 45 1008.0
20260506082644 53 247 13.0 17.0 0.00 0.00 0.00 45 1008.0
20260506082144 53 244 13.0 16.0 0.00 0.00 0.00 45 1008.0
20260506081644 53 244 13.0 17.0 0.00 0.00 0.00 45 1008.0
20260506081144 53 250 14.0 18.0 0.00 0.00 0.00 45 1008.0
20260506080644 53 247 12.0 16.0 0.00 0.00 0.00 45 1008.0
20260506080145 52 251 12.0 16.0 0.00 0.00 0.00 45 1009.0
20260506073145 52 256 11.0 14.0 0.00 0.00 0.00 42 1009.0
20260506072646 52 249 11.0 15.0 0.00 0.00 0.00 42 1009.0
20260506072145 53 248 10.0 13.0 0.00 0.00 0.00 41 1009.0
20260506071645 53 260 10.0 13.0 0.00 0.00 0.00 41 1009.0
20260506071145 53 255 10.0 13.0 0.00 0.00 0.00 40 1009.0
20260506070645 53 255 10.0 13.0 0.00 0.00 0.00 40 1009.0
20260506070145 53 253 9.0 11.0 0.00 0.00 0.00 40 1009.0
20260506062145 54 244 7.0 9.0 0.00 0.00 0.00 37 1008.0
20260506061645 54 258 8.0 10.0 0.00 0.00 0.00 37 1008.0
20260506061144 54 257 8.0 10.0 0.00 0.00 0.00 37 1008.0
20260506060644 55 251 7.0 9.0 0.00 0.00 0.00 36 1008.0
20260506060144 55 242 8.0 10.0 0.00 0.00 0.00 36 1008.0
20260506051144 56 247 8.0 13.0 0.00 0.00 0.00 36 1007.0
20260506050644 57 246 10.0 14.0 0.00 0.00 0.00 36 1007.0
20260506050144 57 251 10.0 15.0 0.00 0.00 0.00 36 1007.0
20260506044644 57 248 10.0 16.0 0.00 0.00 0.00 36 1007.0
20260506044144 57 255 10.0 13.0 0.00 0.00 0.00 35 1007.0
20260506043645 57 247 10.0 14.0 0.00 0.00 0.00 36 1007.0
20260506043144 58 242 9.0 13.0 0.00 0.00 0.00 36 1007.0
20260506042645 58 234 10.0 14.0 0.00 0.00 0.00 35 1007.0
20260506042144 58 240 9.0 13.0 0.00 0.00 0.00 35 1007.0
20260506041645 58 222 12.0 17.0 0.00 0.00 0.00 35 1006.0
20260506041145 58 229 10.0 11.0 0.00 0.00 0.00 35 1006.0
20260506040646 58 240 8.0 11.0 0.00 0.00 0.00 35 1006.0
20260506040147 59 223 9.0 13.0 0.00 0.00 0.00 34 1006.0
20260506035644 59 232 9.0 13.0 0.00 0.00 0.00 34 1006.0
20260506035145 59 238 10.0 13.0 0.00 0.00 0.00 33 1006.0
20260506034644 59 235 9.0 11.0 0.00 0.00 0.00 33 1006.0
20260506034144 60 239 10.0 14.0 0.00 0.00 0.00 33 1006.0
20260506033645 60 226 9.0 15.0 0.00 0.00 0.00 33 1005.0
20260506033144 60 241 11.0 16.0 0.00 0.00 0.00 33 1005.0
20260506032645 60 232 15.0 18.0 0.00 0.00 0.00 32 1005.0
20260506032145 60 236 15.0 17.0 0.00 0.00 0.00 32 1005.0
20260506031646 61 224 10.0 13.0 0.00 0.00 0.00 31 1005.0
20260506031145 61 222 9.0 14.0 0.00 0.00 0.00 31 1004.0
20260506030644 62 248 10.0 15.0 0.00 0.00 0.00 31 1004.0
20260506030144 62 238 13.0 21.0 0.00 0.00 0.00 30 1004.0
20260506025645 62 236 23.0 29.0 0.00 0.00 0.00 30 1004.0
20260506025144 62 246 16.0 22.0 0.00 0.00 0.00 30 1004.0
20260506024647 62 228 15.0 25.0 0.00 0.00 0.00 30 1004.0
20260506024147 63 231 15.0 22.0 0.00 0.00 0.00 29 1003.0
20260506023647 63 219 13.0 22.0 0.00 0.00 0.00 29 1003.0
20260506023145 63 226 19.0 24.0 0.00 0.00 0.00 29 1003.0
20260506022644 63 213 17.0 23.0 0.00 0.00 0.00 28 1003.0
20260506022146 63 234 20.0 27.0 0.00 0.00 0.00 29 1003.0
20260506021645 64 233 18.0 25.0 0.00 0.00 0.00 28 1002.0
20260506021146 64 237 15.0 24.0 0.00 0.00 0.00 28 1002.0
20260506020645 64 238 15.0 21.0 0.00 0.00 0.00 28 1003.0
20260506020147 64 230 15.0 24.0 0.00 0.00 0.00 28 1002.0
20260506015644 65 236 12.0 17.0 0.00 0.00 0.00 28 1002.0
20260506015145 65 238 13.0 17.0 0.00 0.00 0.00 28 1002.0
20260506014645 65 253 13.0 23.0 0.00 0.00 0.00 27 1002.0
20260506014145 66 261 21.0 30.0 0.00 0.00 0.00 27 1001.0
20260506013644 66 268 21.0 27.0 0.00 0.00 0.00 27 1001.0
20260506013145 67 254 19.0 23.0 0.00 0.00 0.00 27 1001.0
20260506012644 67 251 15.0 22.0 0.00 0.00 0.00 26 1000.0
20260506012144 68 262 20.0 24.0 0.00 0.00 0.00 25 1000.0
20260506011644 68 262 21.0 27.0 0.00 0.00 0.00 24 1000.0
20260506011144 69 272 23.0 24.0 0.00 0.00 0.00 24 999.0
20260506010645 69 240 21.0 29.0 0.00 0.00 0.00 23 999.0
20260506010145 69 222 19.0 24.0 0.00 0.00 0.00 24 999.0
20260506005644 69 213 13.0 23.0 0.00 0.00 0.00 23 999.0
20260506005144 70 226 19.0 29.0 0.00 0.00 0.00 23 999.0
20260506004644 70 214 19.0 25.0 0.00 0.00 0.00 23 999.0
20260506004145 70 226 22.0 29.0 0.00 0.00 0.00 23 999.0
20260506003645 69 223 24.0 32.0 0.00 0.00 0.00 23 999.0
20260506003145 69 232 21.0 27.0 0.00 0.00 0.00 23 999.0
20260506002645 69 226 22.0 26.0 0.00 0.00 0.00 23 999.0
20260506002145 70 225 21.0 33.0 0.00 0.00 0.00 23 998.0
20260506001645 71 221 15.0 29.0 0.00 0.00 0.00 23 998.0
20260506001144 71 220 19.0 26.0 0.00 0.00 0.00 23 998.0
20260506000645 71 223 21.0 30.0 0.00 0.00 0.00 23 998.0
20260506000145 72 218 16.0 29.0 0.00 0.00 0.00 22 998.0
20260505235645 72 227 24.0 33.0 0.00 0.00 0.00 22 998.0
20260505235144 72 232 23.0 29.0 0.00 0.00 0.00 21 998.0
20260505234644 72 209 23.0 29.0 0.00 0.00 0.00 22 998.0
20260505234144 72 233 19.0 27.0 0.00 0.00 0.00 22 998.0
20260505233645 73 234 26.0 34.0 0.00 0.00 0.00 22 997.0
20260505233145 74 242 24.0 29.0 0.00 0.00 0.00 22 997.0
20260505232644 75 246 27.0 35.0 0.00 0.00 0.00 21 997.0
20260505232145 75 246 20.0 33.0 0.00 0.00 0.00 20 996.0
20260505231644 75 238 18.0 29.0 0.00 0.00 0.00 21 997.0
20260505231145 75 244 17.0 27.0 0.00 0.00 0.00 20 997.0
20260505230644 75 260 24.0 32.0 0.00 0.00 0.00 21 997.0
20260505230144 75 244 20.0 26.0 0.00 0.00 0.00 20 997.0
20260505225644 75 220 22.0 37.0 0.00 0.00 0.00 20 997.0
20260505225145 75 230 27.0 40.0 0.00 0.00 0.00 20 997.0
20260505224645 74 210 25.0 41.0 0.00 0.00 0.00 20 997.0
20260505224144 75 222 25.0 35.0 0.00 0.00 0.00 20 997.0
20260505223644 75 239 34.0 41.0 0.00 0.00 0.00 19 997.0
20260505223144 75 250 26.0 41.0 0.00 0.00 0.00 19 997.0
20260505222645 75 241 30.0 40.0 0.00 0.00 0.00 19 997.0
20260505222145 75 261 23.0 30.0 0.00 0.00 0.00 19 997.0
20260505221646 76 228 26.0 39.0 0.00 0.00 0.00 18 997.0
20260505221145 76 256 29.0 32.0 0.00 0.00 0.00 18 997.0
20260505220647 75 255 18.0 35.0 0.00 0.00 0.00 18 997.0
20260505220146 76 246 30.0 38.0 0.00 0.00 0.00 18 997.0
20260505215644 76 243 29.0 33.0 0.00 0.00 0.00 18 996.0
20260505215145 77 256 26.0 33.0 0.00 0.00 0.00 17 997.0
20260505214645 77 226 18.0 31.0 0.00 0.00 0.00 18 997.0
20260505214145 78 237 30.0 41.0 0.00 0.00 0.00 17 996.0
20260505213644 77 231 21.0 30.0 0.00 0.00 0.00 18 996.0
20260505213145 77 244 22.0 27.0 0.00 0.00 0.00 18 997.0
20260505212646 77 230 22.0 32.0 0.00 0.00 0.00 18 997.0
20260505212145 77 232 25.0 31.0 0.00 0.00 0.00 18 997.0
20260505211644 76 259 28.0 34.0 0.00 0.00 0.00 18 997.0
20260505211146 76 249 18.0 39.0 0.00 0.00 0.00 19 998.0
20260505210646 75 250 26.0 39.0 0.00 0.00 0.00 19 998.0
20260505210144 75 236 22.0 39.0 0.00 0.00 0.00 18 998.0
20260505205645 75 256 21.0 33.0 0.00 0.00 0.00 18 998.0
20260505205146 74 229 25.0 40.0 0.00 0.00 0.00 18 998.0
20260505204645 74 242 25.0 40.0 0.00 0.00 0.00 18 998.0
20260505204145 75 217 25.0 33.0 0.00 0.00 0.00 17 998.0
20260505203645 75 241 22.0 40.0 0.00 0.00 0.00 17 998.0
20260505203145 76 223 24.0 35.0 0.00 0.00 0.00 16 997.0
20260505202645 76 224 29.0 41.0 0.00 0.00 0.00 16 997.0
20260505202146 77 234 28.0 39.0 0.00 0.00 0.00 16 997.0
20260505201647 77 236 25.0 38.0 0.00 0.00 0.00 16 997.0
20260505201147 77 209 26.0 41.0 0.00 0.00 0.00 16 997.0
20260505200647 77 223 34.0 42.0 0.00 0.00 0.00 17 997.0
20260505200150 77 197 25.0 45.0 0.00 0.00 0.00 16 997.0
20260505195647 77 232 26.0 40.0 0.00 0.00 0.00 15 997.0
20260505195148 77 245 25.0 35.0 0.00 0.00 0.00 14 997.0
20260505194644 78 225 23.0 27.0 0.00 0.00 0.00 13 997.0
20260505194144 78 245 22.0 32.0 0.00 0.00 0.00 13 997.0
20260505193644 78 255 16.0 27.0 0.00 0.00 0.00 13 996.0
20260505193144 78 251 22.0 31.0 0.00 0.00 0.00 13 997.0
20260505192644 78 215 20.0 33.0 0.00 0.00 0.00 13 996.0
20260505192145 78 232 15.0 29.0 0.00 0.00 0.00 14 997.0
20260505191645 78 222 21.0 38.0 0.00 0.00 0.00 13 997.0